Location: Waco, TX
(31.5481°N, 97.1672°W)
Time: 08:32:50
(UTC-05:00)

Tiangong 2 - Pass Details

Date: 18 December 2017
Orbit: 381 x 388 km, 42.8° (Epoch: 25 April)

Event Time Altitude Azimuth Distance (km) Brightness Sun altitude
Rises 19:31:56 0° 232° (SW) 2,252 6.0 -25.5°
Reaches altitude 10° 19:34:00 10° 230° (SW) 1,398 4.7 -26.0°
Enters shadow 19:35:05 20° 228° (SW) 969 3.7 -26.2°
